Content
SEND FEEDBACK

Daily
Averages
Monthly
Summary
United States of America

TOMBSTONE, ARIZONA


Home > North America > United States > Arizona
Elevation: 4392 feet     Latitude: 31 43N     Longitude: 110 04W

WEATHER
 
SELECT A DAY
Number of Records: 122,308;   Date Range: 1/3/95 - 9/18/14
 
SHARE

PRINT THIS DATA

[ ← Previous Day ]
WEATHER ALMANAC - MARCH 29, 2013
[ Next Day → ]
[ °C ]   °F
Weather ElementAverageHighLow
Temperature66.5 °F78.8 °F (2:55 pm)51.8 °F (5:55 am)
Dewpoint20.4 °F26.6 °F (6:55 am)10.4 °F (10:55 pm)
Humidity18.5 %35 % (5:55 am)11 % (1:55 pm)
Barometer30.04 in30.19 in (9:55 pm)29.98 in (2:55 pm)
Wind Speed7.1 mph15 mph (3:55 pm)
Wind Gust24.2 mph (3:55 pm)
Weather ElementAverage
Visibility10 mi
Wind DirectionSSE (148.6 °)

Weather ElementTotal
Precipitation---
Cooling Degree Days0.3 (Base 65)
Growing Degree Days15.3 (Base 50)
Averaged from 22 records on March 29, 2013
WEATHER CONDITIONS BREAKOUT
WIND DIRECTION BREAKOUT
WEATHER BY HOUR - MARCH 29, 2013
[ °C ]   °F
Local TimeTemperatureDewpointHumidityBarometerVisibilityWind DirectionWind SpeedGust SpeedPrecipitationEventsConditions
1:55 AM57.2 °F21.2 °F25 %30.03 in10.0 miVariable3.5 mphOvercast
2:55 AM57.2 °F23.0 °F27 %30.03 in10.0 miVariable5.8 mphOvercast
3:55 AM57.2 °F24.8 °F29 %30.02 in10.0 miVariable4.6 mphMostly Cloudy
4:55 AM55.4 °F24.8 °F31 %30.03 in10.0 miVariable4.6 mphScattered Clouds
5:55 AM51.8 °F24.8 °F35 %30.07 in10.0 miCalmPartly Cloudy
6:55 AM55.4 °F26.6 °F33 %30.08 in10.0 miSSE (150°)3.5 mphPartly Cloudy
7:55 AM62.6 °F23.0 °F22 %30.08 in10.0 miSSE (160°)5.8 mphPartly Cloudy
8:55 AM66.2 °F24.8 °F21 %30.08 in10.0 miEast (80°)4.6 mphClear
9:55 AM69.8 °F24.8 °F18 %30.08 in10.0 miCalmPartly Cloudy
10:55 AM71.6 °F23.0 °F16 %30.08 in10.0 miCalmPartly Cloudy
11:55 AM73.4 °F21.2 °F14 %30.06 in10.0 miWNW (290°)5.8 mphScattered Clouds
12:55 PM75.2 °F19.4 °F12 %30.02 in10.0 miWest (260°)10.4 mphScattered Clouds
1:55 PM77.0 °F17.6 °F11 %29.99 in10.0 miVariable4.6 mphMostly Cloudy
2:55 PM78.8 °F21.2 °F12 %29.98 in10.0 miWest (270°)13.8 mph19.6 mphPartly Cloudy
3:55 PM77.0 °F21.2 °F12 %29.98 in10.0 miWest (270°)15.0 mph24.2 mphScattered Clouds
4:55 PM75.2 °F21.2 °F13 %29.98 in10.0 miWest (270°)12.7 mph20.7 mphScattered Clouds
5:55 PM75.2 °F17.6 °F11 %29.99 in10.0 miWest (260°)11.5 mphScattered Clouds
6:55 PM68.0 °F15.8 °F13 %30.02 in10.0 miWSW (250°)11.5 mphScattered Clouds
7:55 PM66.2 °F15.8 °F14 %30.01 in10.0 miWSW (250°)11.5 mphScattered Clouds
8:55 PM66.2 °F14.0 °F13 %30.03 in10.0 miWSW (250°)9.2 mphScattered Clouds
9:55 PM64.4 °F12.2 °F13 %30.19 in10.0 miWSW (250°)9.2 mphMostly Cloudy
10:55 PM62.6 °F10.4 °F13 %30.05 in10.0 miWest (260°)9.2 mphMostly Cloudy
Hourly data recorded from KFHU, located miles away from Tombstone, Arizona







STORIES FROM OUR PARTNERS